SCP
0 0 0 0 0 0 0 0 0 0 0 0 0 0 0 0 0 0 0 0 0 0 0 0 0 0 0 0 0 0 0 0 0 0 0 0 0 0 0 0 0 0 0
0 0 0 0 0 0 0 0 0 0 0 0 0 0 0 0 0 0 0 0 0 0 0 0 0 0 0 0 0 0 0 0 0 0 0 0 0 0 0 0 0 0 0
0 0 0 0 0 0 0 0 0 0 0 0 0 0 0 0 0 0 0 0 0 0 0 0 0 0 0 0 0 0 0 0 0 0 0 0 0 0 0 0 0 0 0
0 0 0 0 0 0 0 0 0 0 0 0 0 0 0 0 0 0 0 0 0 0 0 0 0 0 0 0 0 0 0 0 0 0 0 0 0 0 0 0 0 0 0
0 0 0 0 0 0 0 0 0 0 0 0 0 0 0 0 0 0 0 0 0 0 0 0 0 0 0 0 0 0 0 0 0 0 0 0 0 0 0 0 0 0 0
0 0 0 0 0 0 0 0 0 0 0 0 0 0 0 0 0 0 0 0 0 0 0 0 0 0 0 0 0 0 0 0 0 0 0 0 0 0 0 0 0 0 0
0 0 0 0 0 0 0 0 0 0 0 0 0 0 0 0 0 0 0 0 0 0 0 0 0 0 0 0 0 0 0 0 0 0 0 0 0 0 0 0 0 0 0
0 0 0 0 0 0 0 0 0 0 0 0 0 0 0 0 0 0 0 0 0 0 0 0 0 0 0 0 0 0 0 0 0 0 0 0 0 0 0 0 0 0 0
0 0 0 0 0 0 0 0 0 0 0 0 0 0 0 0 0 0 0 0 0 0 0 0 0 0 0 0 0 0 0 0 0 0 0 0 0 0 0 0 0 0 0
0 0 0 0 0 0 0 0 0 0 0 0 0 0 0 0 0 0 0 0 0 0 0 0 0 0 0 0 0 0 0 0 0 0 0 0 0 0 0 0 0 0 0
0 0 0 0 0 0 0 0 0 0 0 0 1 1 0 0 0 0 0 0 0 0 0 0 0 0 0 0 0 0 0 0 0 0 0 0 0 0 0 0 0 0 0
0 0 0 0 0 0 0 0 0 0 0 1 1 1 0 0 0 0 0 0 0 0 0 0 0 0 0 0 0 0 0 0 0 0 0 0 0 0 0 0 0 0 0
0 0 0 0 0 0 0 1 1 0 1 1 1 0 0 0 0 0 0 0 0 0 0 0 0 0 0 0 0 0 0 0 0 0 0 0 0 0 0 0 0 0 0
0 0 0 0 0 0 0 1 1 1 1 0 0 0 0 0 0 0 0 0 0 0 0 0 0 0 0 0 0 0 0 0 0 0 0 0 0 0 0 0 0 0 0
0 0 0 0 0 0 0 1 1 1 1 0 0 0 0 0 0 0 0 0 0 0 0 0 0 0 0 0 0 0 0 0 0 0 0 0 0 0 0 0 0 0 0
0 0 0 0 0 0 0 0 1 1 0 0 0 0 0 0 0 0 0 0 0 0 0 0 0 0 0 0 0 0 0 0 0 0 0 0 0 0 0 0 0 0 0
0 0 0 0 0 0 0 0 0 0 0 0 0 0 0 0 0 0 0 1 1 1 1 0 0 0 0 0 0 0 0 0 0 0 0 0 0 0 0 0 0 0 0
0 0 0 0 0 0 0 0 0 0 0 0 0 0 0 0 0 0 1 1 1 1 1 1 0 0 0 0 0 0 0 0 0 0 0 0 0 0 0 0 0 0 0
0 0 0 0 0 0 0 0 0 0 0 0 0 0 0 0 0 0 1 1 1 1 1 1 0 0 0 0 0 0 0 0 0 0 0 0 0 0 0 0 0 0 0
0 0 0 0 0 0 0 0 0 0 0 0 0 0 0 0 0 0 1 1 1 1 1 1 1 0 0 0 0 0 0 0 0 0 0 0 0 0 0 0 0 0 0
0 0 0 0 0 0 0 0 0 0 0 0 0 0 0 0 0 0 0 0 0 0 0 1 1 1 1 1 1 1 0 0 0 0 0 0 0 0 0 0 0 0 0
0 0 0 0 0 0 0 0 0 0 0 0 0 0 0 0 0 0 0 0 0 0 0 0 0 0 0 1 1 1 1 0 0 0 0 0 0 0 0 0 0 0 0
0 0 0 0 0 0 0 0 0 0 0 0 1 1 1 1 0 0 0 0 0 0 0 0 0 0 0 0 0 1 1 0 1 1 0 0 0 0 0 0 0 0 0
0 0 0 0 0 0 0 0 0 0 0 1 1 1 1 1 0 0 0 0 0 0 0 0 0 0 0 0 0 0 0 0 0 0 0 0 0 0 0 0 0 0 0
0 0 0 0 0 0 0 0 0 0 0 1 1 1 1 1 0 0 0 0 0 0 0 0 0 0 0 0 0 0 0 0 0 0 0 0 0 0 0 0 0 0 0
0 0 0 0 0 0 0 0 0 0 0 1 1 0 0 0 0 0 0 0 0 0 0 0 0 0 0 0 0 0 0 0 0 0 0 0 0 0 0 0 0 0 0
Wind_Speed
1 0 1 1 2 1 1 2 1 1 2 2 3 3 3 3 2 2 2 6 6 7 7 8 8 8 9 9 9 10 10 10 10 10 10 10 10 10 10 10 10 9 9
1 1 1 1 1 1 1 1 2 2 2 2 2 2 2 2 2 2 2 4 7 7 7 8 9 9 9 10 9 9 9 10 10 10 10 11 11 10 10 10 10 10 10
1 1 1 1 0 1 1 2 2 2 2 2 2 2 2 2 2 2 2 2 3 7 8 8 8 8 8 9 9 9 9 10 10 10 10 11 11 11 10 10 10 9 9
1 2 1 0 0 1 1 1 2 2 2 2 2 2 2 1 2 2 2 2 2 2 6 8 8 7 8 8 8 8 9 9 10 10 10 10 11 11 10 10 10 9 9
2 2 1 1 1 1 1 2 0 2 2 2 2 2 2 2 2 2 2 2 1 1 1 5 8 7 7 7 8 7 8 9 9 9 10 10 10 10 10 10 10 9 8
2 2 1 1 2 1 1 1 1 2 2 2 3 2 2 1 2 1 2 2 1 2 1 2 3 5 6 5 5 6 6 7 7 8 9 10 10 9 9 9 9 9 9
1 2 2 1 1 1 1 2 2 2 2 2 3 3 3 3 2 2 2 2 2 1 1 2 2 2 3 7 6 5 5 5 6 6 7 9 10 9 9 9 9 9 9
2 2 2 2 1 1 1 2 2 3 2 2 3 3 3 3 2 2 2 2 1 1 2 3 2 2 2 2 3 5 4 5 6 6 6 7 8 8 9 10 10 9 9
2 1 1 2 1 2 1 2 2 3 3 2 2 3 3 2 1 2 2 2 2 2 2 2 3 3 3 2 2 5 5 5 6 6 6 7 8 8 9 9 10 10 10
2 2 2 2 2 2 1 3 1 2 3 3 1 2 3 3 4 2 2 2 3 3 3 3 3 3 3 3 2 2 4 4 5 6 6 6 7 8 8 9 10 11 10
2 2 2 2 2 2 2 2 2 3 3 3 3 2 2 3 5 4 4 3 3 3 3 3 3 3 3 3 3 2 4 4 4 4 4 5 5 6 7 8 9 10 10
2 2 2 2 3 2 2 3 3 3 3 3 3 3 3 3 3 4 4 4 4 3 2 3 3 3 4 4 3 2 4 4 4 4 4 4 4 5 6 7 7 8 10
2 1 2 2 2 2 3 3 3 3 3 3 3 3 3 3 4 4 5 5 5 4 3 3 3 3 3 3 2 4 4 5 5 4 4 4 4 5 5 6 6 6 7
2 1 2 2 2 2 2 2 3 2 2 2 3 3 3 3 3 4 4 5 5 4 3 3 2 3 3 3 1 5 4 5 6 5 5 5 5 4 4 4 5 5 5
2 1 2 2 2 2 2 3 2 2 2 3 3 3 4 3 3 4 4 5 5 6 4 3 2 2 3 2 2 4 4 4 6 6 6 5 5 5 5 4 4 5 6
2 2 3 2 2 2 2 3 2 1 2 2 2 3 4 3 3 3 4 4 4 5 5 3 3 2 3 3 2 4 4 5 7 6 6 6 5 5 5 5 5 5 5
3 3 2 2 2 2 2 2 2 2 2 2 3 2 3 4 4 3 3 4 4 4 5 4 4 2 3 5 3 4 4 5 4 7 7 6 6 6 6 6 5 5 5
2 2 2 2 2 2 2 2 3 3 3 3 3 3 4 3 4 4 4 4 4 4 5 6 5 4 4 4 4 6 4 4 4 6 7 7 7 6 6 5 5 5 5
2 2 2 2 2 2 2 2 3 3 3 4 4 4 4 4 4 4 5 5 4 4 4 6 6 3 4 3 4 5 4 4 5 4 7 8 7 7 7 6 5 4 4
2 2 2 2 2 2 2 2 2 3 4 4 4 4 5 5 4 4 4 5 5 5 5 6 5 4 3 3 4 4 4 4 5 4 3 4 6 9 8 7 6 5 5
2 2 3 2 2 2 1 2 3 4 4 4 4 5 4 4 5 4 5 4 5 6 6 5 5 5 4 3 4 4 4 4 4 4 4 4 4 4 6 8 7 6 6
2 2 2 2 2 2 2 2 4 4 4 4 4 4 5 5 3 4 5 6 6 7 7 7 6 5 5 6 5 5 4 5 4 2 4 4 3 4 3 3 5 6 6
2 2 2 2 2 1 1 1 4 5 5 4 4 4 5 3 4 4 4 6 6 7 7 8 8 7 6 5 6 7 5 5 5 3 4 5 3 4 3 3 6 7 7
1 2 2 2 2 1 0 2 4 5 4 4 4 5 5 4 3 4 5 5 6 5 5 6 6 6 6 5 6 6 6 6 6 4 4 5 3 3 3 2 6 8 8
2 2 2 2 2 2 1 1 4 4 3 4 3 4 4 4 3 5 6 6 6 5 4 4 5 5 5 6 6 5 5 6 5 3 3 4 3 3 3 3 5 9 9
2 2 2 2 2 2 1 2 5 4 3 3 2 3 2 2 2 4 5 6 6 6 6 4 4 4 5 4 6 6 5 6 5 3 2 3 3 3 3 2 2 4 5
Wind_Direction
226 219 258 274 275 267 230 255 264 245 260 255 258 252 247 245 251 247 178 168 196 211 218 220 218 219 217 214 215 215 211 213 215 213 213 216 216 217 218 217 220 222 224
241 241 228 247 263 269 287 272 246 247 256 266 259 245 254 254 242 252 251 179 189 207 216 220 219 221 221 219 218 218 215 217 220 220 219 219 218 220 221 221 223 225 225
210 243 239 231 279 289 256 248 253 245 243 242 246 242 236 240 253 247 249 252 205 194 204 213 218 221 222 222 220 219 219 219 221 223 223 222 220 219 222 224 226 227 227
235 254 255 262 273 250 247 237 245 250 251 258 255 255 253 210 232 233 232 229 260 249 192 197 213 220 223 224 221 218 217 218 219 223 224 222 221 220 219 221 226 229 231
223 247 269 330 265 261 273 269 241 273 255 256 251 241 254 228 234 240 249 248 237 263 267 172 193 210 218 223 224 225 223 223 223 224 228 227 224 221 220 221 223 225 229
220 253 230 233 271 277 279 301 293 270 270 265 269 275 266 254 247 246 246 233 216 227 248 253 204 194 200 212 221 225 228 226 222 222 226 227 225 222 220 221 225 227 230
216 234 263 201 256 257 278 277 274 257 259 266 261 251 223 217 237 221 238 250 223 215 231 250 256 269 195 190 204 213 224 223 223 224 225 225 225 224 222 223 228 231 232
233 211 234 248 236 243 241 266 272 283 282 269 279 282 260 209 212 216 226 227 237 231 232 231 229 237 260 221 171 194 218 231 232 230 231 230 227 226 227 229 231 233 235
216 248 239 261 257 252 239 252 259 264 277 271 279 285 289 298 295 212 225 235 240 244 244 247 233 225 234 238 208 185 208 227 234 234 233 233 232 231 231 233 235 235 235
220 219 234 248 257 265 260 258 267 273 270 273 255 261 288 312 291 273 230 222 232 232 240 253 250 226 225 231 207 184 190 217 235 239 239 240 237 232 233 237 238 235 230
218 234 235 244 243 254 266 283 287 276 270 280 282 266 255 247 257 270 272 272 258 243 234 238 240 240 234 233 224 186 172 202 233 244 244 244 241 234 234 238 239 232 227
214 225 250 250 246 255 249 255 266 257 273 283 283 279 268 269 272 272 274 271 270 264 251 249 245 239 238 232 221 156 172 190 219 232 238 242 244 239 236 236 237 235 229
233 221 260 255 256 253 256 259 256 274 270 270 270 275 278 279 284 283 282 283 286 277 260 248 248 246 243 240 210 181 188 200 214 224 232 238 240 237 233 231 230 234 234
272 278 264 269 274 269 266 263 263 263 267 270 280 292 282 280 284 281 281 285 280 273 257 261 254 256 260 251 209 221 216 202 213 222 227 230 232 233 233 227 226 230 238
257 243 255 260 271 275 280 270 276 285 285 279 280 268 273 284 274 277 278 277 283 286 280 265 260 267 266 264 248 247 246 197 209 216 220 227 226 224 224 224 230 232 233
253 252 257 263 266 269 268 273 265 291 290 294 300 306 295 287 289 278 273 273 274 279 286 292 272 266 284 275 240 263 260 204 204 211 218 223 224 222 223 225 229 234 232
242 245 251 259 262 270 272 269 278 273 278 290 287 290 296 302 292 287 279 276 274 274 274 281 282 283 282 280 274 266 255 248 213 198 211 214 216 219 222 222 224 229 228
245 239 249 258 265 269 272 269 269 269 268 273 280 285 285 283 287 290 290 284 281 281 275 280 281 277 272 270 268 265 259 252 252 187 203 210 209 213 215 218 218 221 222
243 241 245 256 270 273 264 267 270 272 271 274 279 280 282 282 280 288 287 284 279 273 273 271 274 279 273 272 272 265 264 267 260 203 199 200 203 208 209 209 207 209 211
236 242 249 251 259 263 268 271 267 267 271 276 281 282 282 282 283 284 276 277 282 283 273 271 277 276 270 267 264 262 261 256 266 257 240 223 200 202 205 203 201 202 203
243 241 250 252 250 242 264 299 274 265 270 274 276 276 280 294 297 293 294 295 288 283 281 278 278 279 278 280 272 269 271 272 259 257 253 238 215 215 200 201 200 202 204
243 243 246 254 257 276 54 343 297 280 272 270 275 278 272 256 255 254 272 287 292 284 290 289 283 285 284 281 285 278 277 275 270 247 268 259 239 235 222 206 177 187 198
226 229 248 254 262 282 61 306 297 285 277 278 278 280 282 298 283 281 271 262 265 269 273 281 285 288 289 290 287 280 281 284 287 284 267 265 248 248 233 175 165 180 188
230 236 252 260 267 288 61 290 294 273 281 282 278 278 283 289 296 301 283 276 275 277 272 269 282 285 287 292 284 281 282 273 268 262 257 266 253 250 244 192 169 182 187
240 248 245 250 264 288 34 301 293 276 274 282 280 280 277 278 324 310 284 279 282 282 256 262 286 290 298 286 282 278 273 268 265 249 234 261 264 263 247 223 178 183 186
233 250 253 258 264 278 308 285 289 276 280 282 278 278 284 304 316 299 282 280 280 289 295 283 268 259 259 252 246 255 268 271 279 265 222 256 259 262 255 229 202 180 188